www.pogodaiklimat.ru
Время
(UTC), дата
18 20.01
21 20.01
00 21.01
03 21.01
06 21.01
09 21.01
12 21.01
15 21.01
18 21.01
21 21.01
00 22.01
03 22.01
06 22.01
09 22.01
12 22.01
15 22.01
18 22.01
21 22.01
00 23.01
03 23.01
06 23.01
09 23.01
12 23.01
15 23.01
18 23.01
21 23.01
00 24.01
03 24.01
06 24.01
09 24.01
12 24.01
15 24.01
18 24.01
21 24.01
00 25.01
03 25.01
06 25.01
09 25.01
12 25.01
15 25.01
18 25.01
21 25.01
00 26.01
03 26.01
06 26.01
09 26.01
12 26.01
15 26.01
18 26.01
21 26.01
00 27.01
03 27.01
06 27.01
09 27.01
12 27.01
15 27.01
Ветер
(напр.,м/с)
Видим. Явления Облачность Т
(С)
Тd
(С)
f
(%)
Тe
(С)
Тes
(С)
Комфортность P
(гПа)
Po
(гПа)
Тmin
(С)
Tmax
(С)
R
(мм)
R24
(мм)
S
(см)
ЮЗ 1 10 км 6/6 1000 м
[Sc diur, vesp]
+1.7 +1.7 100 -0 -0 тепло 1020.7 942.1 +9.9
ЮЗ 2 10 км 10/0
[Ac lent]
+3.1 +0.2 81 0 0 тепло 1017.9 939.9
З 3 10 км ясно +0.3 -2.1 84 -4 -4 по сезону 1015.6 937.0
Ю 1 50 км 8/0
[Ac lent Ci sp]
+0.1 -2.6 82 -2 -2 по сезону 1012.7 934.3
ЮЗ 1 50 км 10/4 1000 м
[Sc diur, vesp Ac lent Ci sp]
+8.9 -5.0 37 +9 +10 тепло 1008.7 932.8 -0.9
ЮЗ 1 50 км 8/0
[Ci sp]
+13.3 -3.3 31 +14 +17 тепло 1005.0 930.5
Ю 1 20 км 9/6 1000 м
[Sc diur, vesp Ac lent Ci sp]
+9.9 0.0 50 +10 +10 тепло 1005.0 929.7
Ю 1 10 км 8/6 1000 м
[Sc diur, vesp Ac lent]
+5.5 -4.4 49 +5 +5 тепло 1005.7 929.2 +14.3
СЗ 3 200 м туман туман ?/? -1.3 -1.3 100 -7 -7 прохладно 1009.7 931.1 +14.3
СЗ 4 200 м туман туман ?/? -2.0 -2.0 100 -8 -8 прохладно 1010.1 931.3
З 4 4000 м слаб. снег {туман} 10/10 600 м
[Ns]
-4.9 -4.9 100 -12 -12 холодно 1015.0 934.9
З 5 2000 м снег 10/10 600 м
[Ns]
-4.6 -4.6 100 -12 -12 очень
холодно
1022.8 942.2 2
ЮЗ 15-17
{20}
20 км в посл. час снег 10/10 600 м
[Ns]
-4.5 -9.7 67 -15 -15 очень
холодно
1029.4 948.3 -6.2 3
ЮЗ 8
{17}
20 км 10/10 1000 м
[Sc diur, vesp]
-5.0 -10.4 66 -13 -13 очень
холодно
1032.9 951.3
З 8 20 км 10/10 1000 м
[Sc diur, vesp]
-5.8 -10.6 69 -15 -15 очень
холодно
1035.1 953.1
Ю 4 10 км 10/4 1000 м
[Sc diur, vesp Ac As]
-5.8 -10.1 72 -12 -12 очень
холодно
1038.2 955.9 -4.0
ЮЗ 6 10 км 9/6 600 м
[Cb cap Ac lent]
-6.6 -11.2 70 -14 -14 очень
холодно
1038.4 955.9 -4.0 0.7
ЮЗ 9 н/о -6.9 -11.6 69 -16 -16 очень
холодно
1038.4 955.8
З 4
{16}
10 км 10/10 1000 м
[Sc diur, vesp]
-7.3 -12.6 66 -14 -14 очень
холодно
1038.6 955.8
ЮВ 3 20 км 10/10 1000 м
[Sc diur, vesp]
-6.8 -10.6 74 -12 -12 очень
холодно
1037.4 954.9 2
ЮЗ 2 20 км 10/10 1000 м
[Sc diur, vesp]
-4.3 -12.3 54 -8 -8 холодно 1035.8 954.2 -7.4
ЮЗ 4 20 км 10/6 1000 м
[Sc diur, vesp Ac lent]
-2.9 -11.0 54 -8 -8 холодно 1033.7 952.6
ЮЗ 15-16
{18}
20 км {снег} 10/0
[As op]
-3.1 -5.9 81 -14 -14 очень
холодно
1032.8 951.8
З 15-16
{18}
10 км {снег} 10/0
[As op]
-1.5 -6.3 70 -11 -11 очень
холодно
1033.9 953.3 -1.5
З 15-17
{18}
10 км 8/8 1000 м
[Sc diur, vesp]
-1.1 -9.0 55 -10 -10 холодно 1034.8 954.2 -1.5 0.0
Ю 15-17
{18}
10 км 10/10 1000 м
[Sc diur, vesp]
-1.8 -8.8 59 -11 -11 холодно 1036.6 955.6
Ю 6 10 км 10/6 1000 м
[Sc diur, vesp Ac lent]
-2.9 -6.7 75 -10 -10 холодно 1037.5 956.2
Ю 6 20 км 10/6 1000 м
[Sc diur, vesp Ac lent]
-2.7 -6.1 77 -10 -10 холодно 1039.0 957.6 2
штиль 0 20 км 8/4 1000 м
[Sc diur, vesp Ac lent]
-1.9 -6.5 71 -3 -1 по сезону 1039.1 958.0 -3.3
СВ 2 50 км 4/0
[Ac lent]
0.0 -5.3 67 -3 -1 по сезону 1036.9 956.5
СВ 5 20 км 10/10 1000 м
[Ac lent Ci fib]
-1.8 -6.0 73 -8 -8 холодно 1036.9 956.0
З 3 10 км 6/0 1000 м
[Ac lent Ci fib]
-5.1 -5.8 95 -11 -11 очень
холодно
1038.0 956.1 +0.7
штиль 0 10 км ясно -6.1 -6.1 100 -7 -7 прохладно 1037.9 955.6 +0.7
ЮЗ 2 10 км ясно -7.0 -7.0 100 -12 -12 холодно 1036.4 954.0
Ю 1 4000 м дымка ясно -7.3 -7.3 100 -10 -10 холодно 1035.2 952.8
СЗ 1 4000 м дымка ясно -8.2 -8.2 100 -11 -11 очень
холодно
1035.7 952.9
З 1 4000 м слаб. снег 10/0
[As op]
-6.5 -6.5 100 -9 -8 очень
холодно
1035.6 953.4 -8.2
СЗ 1 4000 м слаб. снег 10/0
[As op]
-5.1 -5.1 100 -8 -7 холодно 1033.9 952.2
СЗ 1 20 км {снег} 10/0
[Ac As]
-5.4 -5.4 100 -8 -8 холодно 1034.6 952.8
С 1 10 км 10/4 1000 м
[Sc diur, vesp Ac lent]
-6.5 -6.5 100 -9 -9 холодно 1035.8 953.5 -5.0
С 2 4000 м дымка 10/10 1000 м
[Sc diur, vesp]
-6.9 -6.9 100 -12 -12 очень
холодно
1035.7 953.4 -5.0 0.3
С 1 10 км 10/6 1000 м
[Sc diur, vesp Ac lent]
-6.4 -6.4 100 -9 -9 прохладно 1035.3 953.2
СВ 1 10 км 8/6 1000 м
[Sc diur, vesp Ac lent]
-7.0 -7.0 100 -10 -10 холодно 1035.3 953.0
штиль 0 20 км 10/10 1000 м
[Sc diur, vesp]
-6.9 -6.9 100 -8 -8 холодно 1035.7 953.4 0
СВ 1 20 км 10/10 1000 м
[Sc diur, vesp]
-6.1 -6.1 100 -9 -9 очень
холодно
1035.9 953.8 -7.5
штиль 0 20 км 10/10 1000 м
[Sc diur, vesp]
-4.8 -5.1 98 -6 -6 прохладно 1034.2 952.6
СЗ 1 20 км 10/10 1000 м
[Sc diur, vesp]
-5.2 -5.5 98 -8 -8 холодно 1034.8 953.1
ЮВ 1 10 км 10/8 1000 м
[Sc diur, vesp Ac lent]
-5.4 -5.4 100 -8 -8 холодно 1035.2 953.4 -4.6
Ю 1 10 км 8/8 1000 м
[Sc diur, vesp]
-6.0 -6.0 100 -9 -9 холодно 1034.5 952.5 -4.6
штиль 0 10 км 10/10 1000 м
[Sc diur, vesp]
-6.5 -6.5 100 -8 -8 прохладно 1034.3 952.2
ЮЗ 2 10 км 10/6 1000 м
[Sc diur, vesp Ac lent]
-7.2 -7.2 100 -12 -12 очень
холодно
1033.8 951.5
В 1 20 км 10/10 1000 м
[Sc diur, vesp]
-9.0 -9.0 100 -11 -11 очень
холодно
1034.7 951.8 0
штиль 0 20 км 10/0
[Ac lent]
-6.8 -6.8 100 -8 -7 холодно 1034.9 952.6 -9.1
С 1 50 км ясно -3.5 -6.3 81 -6 -1 прохладно 1032.6 951.5
С 2 50 км 4/0
[Ac lent]
-5.3 -5.3 100 -10 -10 очень
холодно
1034.3 952.5
штиль 0 10 км 10/0
[Ac As]
-5.3 -5.3 100 -6 -6 прохладно 1034.6 952.8 -2.6
Местоположение метеостанции Тараз (Жамбылская область, Казахстан): широта 42.85 долгота 71.38 высота над уровнем моря 655 м.
В архиве по умолчанию представлена погода в Таразе за последнюю неделю. Архивные данные за месяц целиком и за предыдущие месяцы, начиная с января 2011 года, Вы можете получить, выбрав интересующий диапазон дат из раскрывающегося списка и нажав кнопку "Найти!".
*Определитесь, кто Вы:
Внимание! Время в таблицах - всемирное. Для получения местного времени необходимо прибавить поправку, которая равна 6 ч.
Смотрите также архив погоды в соседних городах и на ближайших метеорологических станциях:
Партнеры нашего сайта:      
Пояснения к столбцам:
  • Ветер - указаны скорость ветра в м/с - средняя за 10 мин, порывы в срок и между сроками (в фигурных скобках) и направление, откуда дует ветер: С - северный,
  • СВ - северо-восточный, В - восточный, ЮВ - юго-восточный, Ю - южный, ЮЗ - юго-западный, З - западный, СЗ - северо-западный.
  • Видимость - горизонтальная дальность видимости в метрах или километрах. При видимости от 1 до 10 км при отсутствии осадков обычно наблюдается дымка, при ухудшении видимости до 1 км и менее - туман. В сухую погоду видимость может ухудшаться дымом, пылью или мглою.
  • Явления - указаны атмосферные явления, наблюдавшиеся в срок или в последний час перед сроком; фигурными скобками обозначены явления, наблюдавшиеся между сроками (за 1-3 часа до срока); квадратными скобками обозначены град или гололедные отложения с указанием их диаметра в мм.
  • Облачность - указаны через наклонную черту общая и нижняя облачность в баллах и высота нижней границы облаков в метрах; квадратными скобками обозначены формы облаков: Ci - перистые, Cs - перисто-слоистые, Cc - перисто-кучевые, Ac - высококучевые, As - высокослоистые, Sc - слоисто-кучевые, Ns - слоисто-дождевые, Cu - кучевые, Cb - кучево-дождевые. Подробнее классификацию облаков см. в Атласе облаков (PDF).
  • T - Температура воздуха - температура, измеренная на высоте 2 м над землей.
  • Td - Температура точки росы - температура, при понижении до которой содержащийся в воздухе водяной пар достигнет насыщения.
  • f - Относительная влажность воздуха - влажноcть воздуха, измеренная на высоте 2 м над землей.
  • Te - Эффективная температура - температура, которую ощущает одетый по сезону человек в тени. Характеристика душности погоды. При расчете учитывается влияние влажности воздуха и скорости ветра на теплоощущения человека.
  • Tes - Эффективная температура на солнце - температура, которую ощущает человек, с поправкой на солнечный нагрев. Характеристика знойности погоды. Зависит от высоты солнца над горизонтом, облачности и скорости ветра. Ночью, в пасмурную погоду, а также при ветре 12 м/с и более поправка равна нулю.
  • P - Атмосферное давление - приведенное к уровню моря атмосферное давление.
  • Po - Атмосферное давление - измеренное на уровне метеостанции атмосферное давление.
  • Tmin - Минимальная температура - минимум температуры воздуха на высоте 2 м над землей.
  • Tmax - Максимальная температура - максимум температуры воздуха на высоте 2 м над землей.
  • R - Количество осадков - Количество выпавших осадков за период времени, мм. При наведении курсора мыши на число - период времени, за который выпало указанное количество осадков.
  • R24 - Количество осадков - Количество выпавших осадков за 24 часа, мм.
  • S - Снежный покров - Высота снежного покрова, см. При наведении курсора мыши на число - состояние снежного покрова и степень покрытия местности в баллах.